Zurück zum Katalog

STARLINK-5220

AktivKommunikationVLEO
NORAD 54760·PAYLOAD·🇺🇸 United States

Gestartet Dec 17, 2022 von Cape Canaveral Space Force Station

Loading…

Nächste Überflüge (nächste 24 Stunden)

TLE

AktuellSource: CelesTrak SupGP

Epoche: Sep 14, 2026, 20:56 UTC

1 54760C 22175C   26257.87270833  .00041372  00000+0  11834-2 0  2571
2 54760  53.1589 270.8247 0001245  89.6531  56.5709 15.35384663    16

Verfolge STARLINK-5220 in Echtzeit mit AllMySat

Download on the App Store